JFA13V EGPH-LFMT

Flight info

Callsign JFA13V
Flight time N/A
Altitude 23000
Route UW DCT D344M DCT TLA DCT LAKEY DCT VAMEB DCT OBUNI DCT CALDA DCT CROFT DCT BARTN DCT LOVEL DCT LISTO DCT HON/N0271F250 DCT KIDLI DCT LINDY DCT MID DCT DRAKE DCT SITET DCT ETRAT DCT DVL DCT LGL DCT SORAP DCT BENAR DCT MEN DCT ERGUL DCT ESERA DCT SIMAR DCT D328J DCT FJR DCT ASTEG DCT ESPIG
Aircraft PC12/L-SDFGRWY/S

Departure

Time 2026-04-21 08:58
Airport Edinburgh Airport (EGPH)

Arrival

Time N/A
Airport Montpellier-Méditerranée Airport (LFMT)
Time Latitude Longitude Altitude Speed Heading
2026-04-21 08:43 55.94837 -3.34394 113 ft 0 kts 282°
2026-04-21 08:51 55.94836 -3.34485 111 ft 16 kts 255°
2026-04-21 08:51 55.94779 -3.34702 113 ft 19 kts 242°
2026-04-21 08:51 55.94802 -3.34870 113 ft 13 kts 303°
2026-04-21 08:52 55.94849 -3.35023 113 ft 15 kts 299°
2026-04-21 08:52 55.94904 -3.35199 113 ft 17 kts 299°
2026-04-21 08:52 55.94964 -3.35393 111 ft 19 kts 299°
2026-04-21 08:52 55.95028 -3.35599 113 ft 19 kts 299°
2026-04-21 08:53 55.95073 -3.35796 113 ft 13 kts 244°
2026-04-21 08:53 55.95083 -3.35960 112 ft 16 kts 296°
2026-04-21 08:53 55.95124 -3.36150 112 ft 17 kts 288°
2026-04-21 08:53 55.95100 -3.36356 111 ft 19 kts 236°
2026-04-21 08:54 55.95032 -3.36577 112 ft 21 kts 245°
2026-04-21 08:54 55.94958 -3.36810 111 ft 20 kts 238°
2026-04-21 08:54 55.94882 -3.37031 112 ft 22 kts 238°
2026-04-21 08:54 55.94800 -3.37271 111 ft 23 kts 238°
2026-04-21 08:55 55.94716 -3.37519 112 ft 24 kts 238°
2026-04-21 08:55 55.94628 -3.37775 111 ft 24 kts 238°
2026-04-21 08:55 55.94589 -3.37937 112 ft 10 kts 286°
2026-04-21 08:55 55.94646 -3.38018 111 ft 11 kts 328°
2026-04-21 08:56 55.94705 -3.38079 110 ft 5 kts 342°
2026-04-21 08:56 55.94725 -3.38061 111 ft 0 kts 57°
2026-04-21 08:57 55.94805 -3.37825 110 ft 50 kts 59°
2026-04-21 08:57 55.95050 -3.37107 163 ft 77 kts 59°
2026-04-21 08:57 55.95342 -3.36253 411 ft 81 kts 59°
2026-04-21 08:58 55.95649 -3.35390 692 ft 86 kts 53°
2026-04-21 08:58 55.96141 -3.34606 954 ft 102 kts 43°
2026-04-21 08:58 55.96732 -3.33780 1326 ft 112 kts 43°
2026-04-21 08:58 55.97354 -3.32946 1796 ft 113 kts 41°
2026-04-21 08:59 55.97820 -3.31879 2211 ft 111 kts 66°
2026-04-21 08:59 55.98299 -3.30800 2627 ft 113 kts 48°
2026-04-21 08:59 55.98862 -3.29797 3031 ft 119 kts 49°
2026-04-21 08:59 55.99416 -3.28859 3383 ft 124 kts 47°
2026-04-21 09:00 56.00051 -3.27811 3867 ft 125 kts 47°
2026-04-21 09:00 56.00251 -3.27485 3997 ft 126 kts 47°
2026-04-21 09:00 56.00501 -3.27077 4165 ft 127 kts 47°
2026-04-21 09:00 56.01155 -3.26017 4628 ft 127 kts 47°
2026-04-21 09:01 56.01810 -3.24957 5097 ft 128 kts 47°
2026-04-21 09:01 56.02475 -3.23882 5631 ft 129 kts 48°
2026-04-21 09:01 56.03144 -3.22801 6221 ft 130 kts 48°
2026-04-21 09:01 56.03822 -3.21706 6714 ft 133 kts 49°
2026-04-21 09:02 56.04407 -3.20465 7220 ft 128 kts 74°
2026-04-21 09:02 56.04452 -3.18905 7713 ft 127 kts 98°
2026-04-21 09:02 56.04336 -3.17328 8226 ft 128 kts 98°
2026-04-21 09:03 56.04109 -3.14174 9271 ft 129 kts 99°
2026-04-21 09:03 56.03992 -3.12567 9793 ft 131 kts 99°
2026-04-21 09:03 56.03875 -3.10952 10328 ft 131 kts 100°
2026-04-21 09:03 56.03757 -3.09327 10828 ft 132 kts 100°
2026-04-21 09:04 56.03502 -3.07774 11295 ft 132 kts 122°
2026-04-21 09:04 56.02827 -3.06624 11756 ft 137 kts 137°
2026-04-21 09:04 56.02072 -3.05575 12238 ft 138 kts 137°
2026-04-21 09:04 56.01314 -3.04516 12729 ft 139 kts 137°
2026-04-21 09:05 56.00560 -3.03462 13202 ft 140 kts 137°
2026-04-21 09:05 55.99787 -3.02382 13687 ft 142 kts 137°
2026-04-21 09:05 55.99008 -3.01294 14177 ft 143 kts 137°
2026-04-21 09:05 55.98216 -3.00209 14620 ft 144 kts 142°
2026-04-21 09:06 55.97286 -2.99684 14999 ft 152 kts 162°
2026-04-21 09:06 55.96237 -2.99353 15437 ft 153 kts 162°
2026-04-21 09:06 55.95525 -2.99247 15712 ft 160 kts 177°
2026-04-21 09:06 55.94434 -2.99884 16135 ft 170 kts 195°
2026-04-21 09:07 55.93354 -3.00773 16567 ft 171 kts 195°
2026-04-21 09:07 55.92331 -3.01603 16979 ft 172 kts 195°
2026-04-21 09:07 55.91236 -3.02484 17422 ft 173 kts 195°
2026-04-21 09:07 55.90130 -3.03371 17864 ft 175 kts 195°
2026-04-21 09:08 55.89020 -3.04262 18306 ft 176 kts 195°
2026-04-21 09:08 55.87936 -3.05131 18722 ft 177 kts 195°
2026-04-21 09:08 55.86870 -3.05985 19106 ft 178 kts 195°
2026-04-21 09:08 55.85737 -3.06893 19496 ft 179 kts 195°
2026-04-21 09:09 55.84596 -3.07807 19890 ft 180 kts 195°
2026-04-21 09:09 55.83446 -3.08725 20256 ft 184 kts 195°
2026-04-21 09:09 55.82269 -3.09664 20606 ft 187 kts 195°
2026-04-21 09:09 55.81081 -3.10616 20998 ft 187 kts 195°
2026-04-21 09:10 55.79889 -3.11568 21375 ft 189 kts 195°
2026-04-21 09:10 55.78687 -3.12527 21763 ft 190 kts 195°
2026-04-21 09:10 55.77479 -3.13490 22139 ft 191 kts 195°
2026-04-21 09:10 55.76266 -3.14456 22515 ft 192 kts 195°
2026-04-21 09:11 55.75043 -3.15429 22891 ft 193 kts 195°
2026-04-21 09:11 55.73813 -3.16407 23259 ft 194 kts 195°
2026-04-21 09:11 55.72575 -3.17391 23618 ft 196 kts 195°
2026-04-21 09:11 55.71328 -3.18381 23968 ft 197 kts 195°
2026-04-21 09:12 55.70076 -3.19376 24311 ft 198 kts 195°
2026-04-21 09:12 55.68815 -3.20375 24615 ft 199 kts 196°
2026-04-21 09:12 55.67551 -3.21377 24917 ft 200 kts 196°
2026-04-21 09:12 55.66275 -3.22387 25232 ft 201 kts 196°
2026-04-21 09:13 55.64993 -3.23402 25522 ft 204 kts 196°
2026-04-21 09:13 55.63648 -3.24441 25534 ft 218 kts 196°
2026-04-21 09:13 55.62236 -3.25529 25551 ft 231 kts 197°
2026-04-21 09:13 55.60745 -3.26711 25540 ft 243 kts 198°
2026-04-21 09:14 55.59174 -3.27967 25540 ft 251 kts 198°
2026-04-21 09:14 55.57598 -3.29218 25541 ft 257 kts 198°
2026-04-21 09:14 55.55951 -3.30519 25541 ft 262 kts 198°